NOAA 16 DEB, 41203

Orbit data source: Space-Track

NOAA 16 DEB, 41203 is space debris in LEO originally from a launch on Thu, 21 Sep 2000 UTC launched from the Air Force Western Test Range (AFWTR). Debris objects in space refer to the collection of defunct objects orbiting the Earth. Examples of debris include non-operational satellites, rocket bodies, and fragments generated from explosions, collisions, or faulty payload assembly.

Loading next visibility...
NOAA 16 DEB details
Identifier
41203, 2000-055DG
Orbit
LEO
Last TLE update2 days ago
Origin
Flag of USNOAA (US)
ManufacturerUnknown
MissionSpacecraft
Bus & MotorUnknown
MassUnknown
Launch date (UTC)
2000-09-21 (24 years ago)
Launch vehicleUnknown
Launch site
Air Force Western Test Range (AFWTR)
Object type
Payload
Rocket body
Debris
Shape & HBRUnknown
Radar Cross SectionSmall (<0.1 m²)

Expand to show TLE details & history

TLE from 2 days ago
0 NOAA 16 DEB
1 41203U 00055DG  24347.39804605  .00004706  00000-0  23906-2 0  9994
2 41203  98.7191  30.1699 0033779 271.1141  88.6164 14.16070997463584
Epoch: 2024-12-12T09:33Z
Definitive object data (Epoch: 2024-12-12T09:33:11.178Z)
Latitude0.00003°
Longitude165.29437°
Altitude841.073 km
Speed7.433 km/s
True Right ascension02h 00m 40s
True Declination0° 00' 00"
Sunlit
Object was in full shadow at TLE epoch
Visualization TLE readout
Latitude70.49674°
Longitude141.52351°
Altitude874.446 km
Speed7.409 km/s
Apparent Right ascension16h 34m 09s
Apparent Declination40° 00' 06"
Sunlit
Object is in daylight
Visualization observer readout
Local Sidereal Time02:50:13
Azimuth340.251° N
Elevation-6.642°
Doppler factor1
Orbital elements
Apogee altitude860.203 km
Perigee altitude811.467 km
Semi-major axis7,213.972 km
Eccentricity0.0033779
Inclination98.7191°
RAAN30.1699°
Arg. of periapsis271.1141°
True anomaly89.0034°
Mean anomaly88.6164°
Eccentric anomaly88.8099°
Mean motion3.54227 °/min
BSTAR0.0023906
Orbital period101.63 mins
Loading maneuver chart data...
Loading historical data...
Loading historical data...
Loading historical data...
Loading historical data...
Loading historical data...
Loading historical data...
Loading historical data...

NOAA 16 DEB Visibility forecast

Observer location: undefined°, undefined

Span
Click to sort rows by Start time (UTC) header in descending order
Start Az.
Max El. time (UTC)
Max El. Az.
Max El.
End time (UTC)
End Az.
6 mins2024-12-14 14:44:21.426Z53.817° ENE2024-12-14 14:47:21.426Z89.94° E17.754°2024-12-14 14:50:21.426Z127.704° SE
9 mins2024-12-14 16:24:21.426Z0.193° NNE2024-12-14 16:28:21.426Z285.348° WNW39.539°2024-12-14 16:33:21.426Z212.473° SW
8 mins2024-12-15 02:08:21.426Z119.215° SE2024-12-15 02:12:21.426Z57.678° ENE27.123°2024-12-15 02:16:21.426Z8.606° NNE
8 mins2024-12-15 03:48:21.426Z204.676° SW2024-12-15 03:52:21.426Z265.557° W29.469°2024-12-15 03:56:21.426Z322.768° NNW
|